Home   Weather   Delmenhorst   Past weeks

Flag for Germany Past Weather in Delmenhorst, Lower Saxony, Germany — Yesterday and Last 2 Weeks

Now
55 °F

Clear.


Feels Like: 53 °F
Forecast: 50 / 67 °F
Wind: 8 mph from Southeast

Location: Bremen Airport

Current Time: Sep 25, 2016 at 4:04:41 AM

Latest Report: Sep 25, 2016 at 3:20 AM


Visibility: 10 mi

Pressure: 30.12 "Hg

Humidity: 82%

Dew Point: 50 °F

Location of DelmenhorstLocation

Past Weather in Delmenhorst — Graph

°F

Delmenhorst Temperature Yesterday

Maximum temperature yesterday: 72 °F (at 3:20 PM)
Minimum temperature yesterday: 46 °F (at 1:50 AM)
Average temperature yesterday: 58 °F

High & Low Weather Summary for the Past Weeks

 TemperatureHumidityPressure
High90 °F (Sep 13, 2:20 PM)100% (Sep 10, 2:20 AM)30.27 "Hg (Sep 10, 2:20 AM)
Low45 °F (Sep 21, 6:50 AM)32% (Sep 15, 4:50 PM)29.86 "Hg (Sep 16, 2:20 AM)
Average64 °F72%30.06 "Hg
* Reported Sep 10 2:20 AM — Sep 25 2:50 AM, Delmenhorst, Weather by CustomWeather, © 2016

Note: Actual official high and low records may vary slightly from our data, if they occured in-between our weather recording intervals... More about our weather records

Advertising

Delmenhorst Weather History for the Previous 24 Hours

Scroll right to see more
 ConditionsComfort  
Time TempWeatherWind HumidityBarometerVisibility
2:50 AM
Sun, Sep 25
55 °FClear.9 mph82%30.12 "Hg10 mi
2:20 AM55 °FClear.9 mph82%30.12 "Hg10 mi
1:50 AM57 °FClear.9 mph77%30.15 "Hg10 mi
1:20 AM57 °FClear.10 mph77%30.15 "Hg10 mi
12:50 AM57 °FClear.8 mph77%30.15 "Hg10 mi
12:20 AM57 °FClear.7 mph77%30.15 "Hg10 mi
11:50 PM
Sat, Sep 24
57 °FClear.6 mph77%30.15 "Hg10 mi
11:20 PM57 °FClear.6 mph77%30.15 "Hg10 mi
10:50 PM57 °FPassing clouds.3 mph77%30.18 "HgN/A
10:20 PM59 °FClear.3 mph72%30.18 "Hg10 mi
9:50 PM59 °FClear.6 mph77%30.18 "Hg10 mi
9:20 PM61 °FClear.7 mph72%30.18 "Hg10 mi
8:50 PM61 °FClear.5 mph72%30.18 "Hg10 mi
8:20 PM59 °FClear.5 mph77%30.18 "Hg10 mi
7:50 PM61 °FClear.3 mph72%30.18 "Hg10 mi
7:20 PM64 °FClear.3 mph64%30.18 "Hg10 mi
6:50 PM66 °FSunny.3 mph64%30.15 "Hg10 mi
6:20 PM68 °FSunny.5 mph56%30.18 "Hg10 mi
5:50 PM70 °FPassing clouds.6 mph53%30.18 "HgN/A
5:20 PM72 °FPassing clouds.8 mph47%30.18 "HgN/A
4:50 PM72 °FPassing clouds.12 mph47%30.18 "HgN/A
4:20 PM70 °FPassing clouds.12 mph46%30.18 "HgN/A
3:50 PM72 °FPassing clouds.13 mph44%30.21 "HgN/A
3:20 PM72 °FPassing clouds.12 mph44%30.21 "HgN/A
2:50 PM70 °FPassing clouds.9 mph50%30.21 "HgN/A
2:20 PM70 °FScattered clouds.10 mph50%30.21 "HgN/A
1:50 PM70 °FScattered clouds.13 mph57%30.24 "HgN/A
1:20 PM70 °FScattered clouds.12 mph53%30.24 "HgN/A
12:50 PM68 °FScattered clouds.8 mph56%30.24 "HgN/A
12:20 PM66 °FPassing clouds.9 mph56%30.27 "HgN/A
11:50 AM64 °FPassing clouds.6 mph68%30.27 "HgN/A
11:20 AM61 °FPassing clouds.3 mph72%30.27 "HgN/A
10:50 AM59 °FScattered clouds.6 mph77%30.27 "HgN/A
10:20 AM57 °FSunny.6 mph82%30.27 "Hg10 mi
9:50 AM55 °FSunny.6 mph88%30.27 "Hg10 mi
9:20 AM52 °FSunny.5 mph94%30.27 "Hg10 mi
8:50 AM50 °FSunny.5 mph100%30.27 "Hg10 mi
8:20 AM48 °FSunny.5 mph100%30.27 "Hg10 mi
7:50 AM46 °FFog.3 mph100%30.27 "HgN/A
7:20 AM46 °FFog.2 mph100%30.27 "HgN/A
6:50 AM46 °FFog.No wind100%30.27 "HgN/A
6:20 AM46 °FFog.No wind100%30.27 "HgN/A
5:50 AM46 °FFog.No wind93%30.27 "HgN/A
5:20 AM48 °FFog.No wind100%30.27 "HgN/A
4:50 AM48 °FFog.No wind100%30.27 "HgN/A
4:20 AM48 °FFog.1 mph100%30.27 "HgN/A
Weather by CustomWeather, © 2016

See weather overviewHow to use our weather pages